Погода в Виахту

Россия / Сахалинская область     51°34′37″N   141°56′23″E
темп.,
°C
ветер,
м/с
пор.,
м/с
влажн.,
%
обл.,
%
осадки,
мм/ч
давл.,
гПа
погр.,
м
15 мая, сб
сб1523:00+3ссв229855 0.0 101414
02:00+3ююв009859 0.0 101534
05:00+3ю339860 0.1 101427
08:00+4ююз4594100 0.1 1015191
11:00+5ююз3486100 0.1 1012228
14:00+6ю4880100 0.0 1009298
17:00+4ю81591100 0.1 1007286
20:00+6юв71788100 1.5 1002781
16 мая, вс
вс1623:00+6ю172894100 8.2 9991053
02:00+4ю152297100 5.1 997523
05:00+4ю142198100 5.1 995417
08:00+4ю132298100 0.0 993370
11:00+4ююз121798100 2.6 994342
14:00+5ююз91389100 0.2 994267
17:00+5ююз510856 0.3 996310
20:00+4ю68845 0.0 998122
17 мая, пн
пн1723:00+3ююз6119316 0.0 999148
02:00+2юз369614 0.0 999100
05:00+2ю349880 0.0 100068
08:00+4ююз239294 0.0 100189
11:00+5юз238159 0.0 1001264
14:00+6ююз237755 0.0 1001295
17:00+6ю568355 0.0 1000207
20:00+4ююв589258 0.0 1001153
18 мая, вт
вт1823:00+5ю3138798 0.0 1000235
02:00+6ююз71578100 0.1 1000279
05:00+5ю8158599 0.1 1000250
08:00+5ю612874 0.0 1001227
11:00+5ю588677 0.0 1002215
14:00+6ю378483 0.1 1002162
17:00+5вюв3492100 0.6 100280
20:00+7ю1186100 0.1 100214
19 мая, ср
ср1923:00+6зсз3396100 0.3 1003101
02:00+5в4496100 2.1 100183
05:00+4в119874 2.4 99920
08:00+4ююз91796100 0.1 998485
11:00+4ююз101797100 2.8 999396
14:00+4ююз81397100 0.0 1000286
17:00+4ююз599691 0.0 1001232
20:00+4ю599889 0.0 1002158